Location: Bratislava
(48.1500°N, 17.1170°E)
Time: 05:21:39
(UTC+02:00)

Amateur Radio Satellites - All Passes

Search period start: 24 April 2017 04:51
Search period end: 25 April 2017 04:51
Location: Bratislava, 48.1500°N, 17.1170°E

Satellite Date Start Highest point End Downlink Frequencies (MHz)
Time Altitude Azimuth
STARS 24 Apr 04:53:08 04:57:31 69° 73° (ENE) 05:01:55 437.465
YUBILEINY 24 Apr 04:55:26 05:04:01 69° 94° (E) 05:12:39 435.215
PCSat 24 Apr 05:21:28 05:26:04 27° 322° (NW) 05:30:41 145.827
AO-7 24 Apr 05:21:38 05:29:56 74° 294° (WNW) 05:38:13 .
M-CUBED/EXP-1 PRIME 24 Apr 05:30:49 05:33:52 18° 53° (NE) 05:36:57 437.505
DOVE 4 24 Apr 05:33:34 05:35:59 14° 86° (E) 05:38:21 437.250
KKS-1 24 Apr 05:50:08 05:53:07 17° 269° (W) 05:56:06 437.445
CUBESAT XI-V 24 Apr 05:55:19 05:58:33 19° 270° (W) 06:01:50 437.345
RS-15 24 Apr 06:02:03 06:08:11 16° 92° (E) 06:14:23 29.354- 29.394
XW-2F 24 Apr 06:06:21 06:08:35 15° 91° (E) 06:10:50 145.980 - 146.000
ITAMSAT 1 24 Apr 06:06:31 06:09:57 18° 304° (WNW) 06:13:22 435.822/435.867
NUDT-PHONESAT 24 Apr 06:27:33 06:30:24 21° 93° (E) 06:33:14 437.300
SO-50 24 Apr 06:31:48 06:34:19 15° 110° (ESE) 06:36:49 436.795
STARS 24 Apr 06:31:56 06:34:20 14° 271° (W) 06:36:45 437.465
STRAND 1 24 Apr 06:45:41 06:50:34 48° 68° (ENE) 06:55:29 437.568
CUTE-I 24 Apr 06:49:06 06:54:07 41° 98° (E) 06:59:07 437.470
XW-2D 24 Apr 06:52:40 06:56:23 51° 100° (E) 07:00:06 145.860 - 145.880
YUBILEINY 24 Apr 06:54:01 07:01:34 32° 297° (WNW) 07:09:10 435.215
XW-2B 24 Apr 06:59:28 07:03:14 59° 100° (E) 07:07:00 145.730 - 145.750
M-CUBED/EXP-1 PRIME 24 Apr 07:03:07 07:07:43 80° 251° (WSW) 07:12:26 437.505
LilacSat-2 24 Apr 07:06:33 07:10:23 77° 101° (ESE) 07:14:13 437.200
DOVE 4 24 Apr 07:09:32 07:14:22 76° 286° (WNW) 07:18:51 437.250
PCSat 24 Apr 07:09:37 07:11:25 11° 347° (NNW) 07:13:13 145.827
XW-2C 24 Apr 07:11:13 07:15:01 83° 103° (ESE) 07:18:50 145.795 - 145.815
AO-7 24 Apr 07:15:30 07:21:27 22° 316° (NW) 07:27:23 .
KAITUO 1B 24 Apr 07:17:00 07:20:46 77° 102° (ESE) 07:24:32 145.475/437.950
XW-2A 24 Apr 07:29:25 07:31:35 16° 92° (E) 07:33:45 145.665 - 145.685
XW-2F 24 Apr 07:39:20 07:43:01 48° 288° (WNW) 07:46:41 145.980 - 146.000
HO-68 24 Apr 07:56:37 08:03:26 43° 98° (E) 08:10:10 435.675
PRISM 24 Apr 08:00:22 08:00:53 10° 55° (NE) 08:01:25 437.425
NUDT-PHONESAT 24 Apr 08:01:02 08:04:24 33° 291° (WNW) 08:07:46 437.300
RS-15 24 Apr 08:06:07 08:17:52 61° 116° (ESE) 08:29:54 29.354- 29.394
SO-50 24 Apr 08:09:33 08:14:10 85° 311° (NW) 08:18:45 436.795
CUTE 1.7 + AOD 2 24 Apr 08:16:17 08:20:33 58° 100° (E) 08:24:46 437.475
AO-73 24 Apr 08:20:34 08:20:49 10° 87° (E) 08:21:05 145.935
AAUSAT CUBESAT 2 24 Apr 08:25:12 08:28:39 24° 93° (E) 08:32:05 437.432
STRAND 1 24 Apr 08:25:47 08:29:59 25° 267° (W) 08:34:13 437.568
FO-29 24 Apr 08:26:00 08:29:28 16° 55° (NE) 08:32:45 435.910
XW-2D 24 Apr 08:27:53 08:30:13 16° 297° (WNW) 08:32:32 145.860 - 145.880
CUTE-I 24 Apr 08:29:22 08:34:04 33° 297° (WNW) 08:38:45 437.470
XW-2B 24 Apr 08:34:59 08:37:00 14° 299° (WNW) 08:39:02 145.730 - 145.750
Oscar 11 24 Apr 08:38:20 08:40:43 14° 89° (E) 08:43:04 .
M-CUBED/EXP-1 PRIME 24 Apr 08:41:38 08:42:51 11° 269° (W) 08:44:04 437.505
UWE-3 24 Apr 08:42:13 08:45:58 31° 96° (E) 08:49:43 435.000/436.395/437.385
SEEDS 24 Apr 08:42:31 08:46:47 73° 102° (ESE) 08:51:02 437.485
LilacSat-2 24 Apr 08:42:44 08:44:07 12° 300° (WNW) 08:45:29 437.200
TIGRISAT 24 Apr 08:47:15 08:50:08 18° 61° (ENE) 08:52:59 435.000
XW-2C 24 Apr 08:47:42 08:48:38 11° 301° (WNW) 08:49:34 145.795 - 145.815
CUBEBUG 2 24 Apr 08:48:24 08:52:30 58° 100° (E) 08:56:37 437.445
DOVE 4 24 Apr 08:49:24 08:51:08 12° 306° (NW) 08:52:49 437.250
KAITUO 1B 24 Apr 08:53:04 08:54:13 11° 300° (WNW) 08:55:23 145.475/437.950
PCSat 24 Apr 08:55:34 08:57:27 12° 14° (NNE) 08:59:20 145.827
XW-2A 24 Apr 09:01:25 09:04:29 34° 290° (WNW) 09:07:33 145.665 - 145.685
UNISAT 6 24 Apr 09:06:30 09:10:12 27° 66° (ENE) 09:13:52 437.425
PRISM 24 Apr 09:31:16 09:35:25 77° 74° (ENE) 09:39:36 437.425
OBJECT BX 24 Apr 09:34:00 09:34:31 10° 88° (E) 09:35:03 145.990 - 145.960
DELFI C3 24 Apr 09:38:25 09:41:08 17° 91° (E) 09:43:49 145.870
HO-68 24 Apr 09:44:26 09:51:13 46° 298° (WNW) 09:57:59 435.675
ZACube-1 24 Apr 09:44:41 09:48:53 84° 103° (ESE) 09:53:08 437.345
SO-50 24 Apr 09:51:51 09:55:17 20° 330° (NNW) 09:58:42 436.795
CUTE 1.7 + AOD 2 24 Apr 09:53:07 09:55:58 18° 298° (WNW) 09:58:49 437.475
AO-73 24 Apr 09:53:28 09:57:40 87° 290° (WNW) 10:01:55 145.935
AAUSAT CUBESAT 2 24 Apr 10:00:21 10:04:12 36° 291° (WNW) 10:08:02 437.432
QB50P2 24 Apr 10:05:41 10:07:02 11° 57° (ENE) 10:08:24 145.880/145.840
FO-29 24 Apr 10:07:30 10:13:53 80° 73° (ENE) 10:19:33 435.910
Oscar 11 24 Apr 10:12:58 10:17:18 67° 286° (WNW) 10:21:37 .
RS-15 24 Apr 10:18:44 10:30:44 57° 323° (NW) 10:42:57 29.354- 29.394
UWE-3 24 Apr 10:18:50 10:22:22 27° 294° (WNW) 10:25:56 435.000/436.395/437.385
SEEDS 24 Apr 10:19:37 10:21:56 15° 300° (WNW) 10:24:16 437.485
ISS 24 Apr 10:20:49 10:23:54 42° 148° (SSE) 10:27:00 437.550
TIGRISAT 24 Apr 10:22:04 10:26:25 60° 259° (W) 10:30:43 435.000
AIST 2D 24 Apr 10:22:27 10:24:59 19° 66° (ENE) 10:27:31 435.315
Tancredo 1 24 Apr 10:22:30 10:25:32 51° 150° (SSE) 10:28:34 437.200
CUBEBUG 2 24 Apr 10:26:07 10:28:43 16° 299° (WNW) 10:31:20 437.445
NANOSAT C BR1 24 Apr 10:29:21 10:31:57 16° 61° (ENE) 10:34:34 145.865
PCSat 24 Apr 10:38:06 10:42:47 28° 39° (NE) 10:47:26 145.827
UNISAT 6 24 Apr 10:42:47 10:46:49 35° 263° (W) 10:50:49 437.425
LO-87 24 Apr 10:48:03 10:48:46 10° 88° (E) 10:49:28 145.935 - 145.965
EO-79 24 Apr 10:53:52 10:57:31 29° 66° (ENE) 11:01:10 145.935-145.965
DUCHIFAT 1 24 Apr 10:59:42 11:03:16 28° 66° (ENE) 11:06:51 145.980
OBJECT BX 24 Apr 11:05:00 11:08:39 68° 285° (WNW) 11:12:17 145.990 - 145.960
O/OREOS (USA 219) 24 Apr 11:06:19 11:10:45 50° 110° (ESE) 11:15:14 437.305
ESTCUBE 1 24 Apr 11:09:09 11:11:21 13° 88° (E) 11:13:31 437.505/2401.250
PRISM 24 Apr 11:09:44 11:11:13 12° 272° (W) 11:12:45 437.425
DELFI C3 24 Apr 11:12:18 11:16:11 47° 289° (WNW) 11:20:01 145.870
ZACube-1 24 Apr 11:22:49 11:24:35 12° 301° (WNW) 11:26:20 437.345
POLYITAN 1 24 Apr 11:31:31 11:35:42 68° 74° (ENE) 11:39:55 437.675
AO-73 24 Apr 11:31:58 11:33:15 11° 302° (WNW) 11:34:33 145.935
HO-68 24 Apr 11:34:31 11:37:14 13° 320° (NW) 11:39:57 435.675
SO-50 24 Apr 11:37:01 11:37:30 10° 354° (N) 11:37:59 436.795
QB50P2 24 Apr 11:37:54 11:42:09 85° 75° (ENE) 11:46:24 145.880/145.840
AIST 2D 24 Apr 11:54:52 11:58:01 32° 263° (W) 12:01:12 435.315
FO-29 24 Apr 11:55:20 11:59:30 18° 270° (W) 12:03:25 435.910
ISS 24 Apr 11:57:08 12:00:21 55° 346° (NNW) 12:03:34 437.550
Tancredo 1 24 Apr 11:58:29 12:01:30 48° 349° (N) 12:04:32 437.200
NANOSAT C BR1 24 Apr 12:03:04 12:07:14 62° 259° (WSW) 12:11:26 145.865
BUGSAT 1 24 Apr 12:13:21 12:17:24 53° 72° (ENE) 12:21:27 437.445
LO-87 24 Apr 12:19:04 12:22:38 63° 285° (WNW) 12:26:09 145.935 - 145.965
PCSat 24 Apr 12:21:14 12:26:39 68° 240° (WSW) 12:32:01 145.827
Gurwin Techsat 1B 24 Apr 12:27:52 12:31:50 22° 59° (ENE) 12:35:49 435.225
EO-79 24 Apr 12:29:27 12:33:13 31° 264° (W) 12:37:00 145.935-145.965
DUCHIFAT 1 24 Apr 12:35:05 12:38:52 32° 264° (W) 12:42:40 145.980
RS-15 24 Apr 12:35:23 12:46:32 36° 355° (N) 12:57:36 29.354- 29.394
DX 1 24 Apr 12:38:08 12:39:43 12° 88° (E) 12:41:18 434.975-435.025
AO-7 24 Apr 12:44:05 12:48:59 17° 38° (NE) 12:53:53 .
ESTCUBE 1 24 Apr 12:44:08 12:48:43 78° 285° (WNW) 12:53:15 437.505/2401.250
O/OREOS (USA 219) 24 Apr 12:46:41 12:50:27 24° 310° (NW) 12:54:15 437.305
Oscar 19 24 Apr 12:49:08 12:54:04 48° 68° (ENE) 12:59:02 437.125/150
SPROUT 24 Apr 12:59:54 13:03:59 44° 99° (E) 13:08:03 437.525
YUBILEINY 24 Apr 13:08:01 13:09:20 10° 41° (NE) 13:10:37 435.215
POLYITAN 1 24 Apr 13:09:55 13:11:58 13° 271° (W) 13:14:01 437.675
VELOX 1 24 Apr 13:10:29 13:14:54 60° 101° (E) 13:19:15 145.980
50 SAT 24 Apr 13:12:47 13:16:04 36° 98° (E) 13:19:18 437.505
QB50P2 24 Apr 13:17:39 13:18:32 11° 273° (W) 13:19:25 145.880/145.840
SO-50 24 Apr 13:17:44 13:19:59 13° 19° (NNE) 13:22:13 436.795
ISS 24 Apr 13:34:01 13:37:09 45° 6° (N) 13:40:19 437.550
Tancredo 1 24 Apr 13:34:44 13:37:46 46° 10° (N) 13:40:47 437.200
UKube-1 24 Apr 13:45:23 13:49:27 38° 98° (E) 13:53:29 .
AO-85 24 Apr 13:49:55 13:54:06 60° 124° (SE) 13:58:04 145.980
BUGSAT 1 24 Apr 13:50:26 13:53:05 16° 269° (W) 13:55:43 437.445
Gurwin Techsat 1B 24 Apr 14:06:02 14:11:20 66° 258° (WSW) 14:16:39 435.225
PCSat 24 Apr 14:07:42 14:09:01 11° 259° (W) 14:10:20 145.827
ITAMSAT 1 24 Apr 14:09:12 14:13:33 28° 62° (ENE) 14:17:54 435.822/435.867
DX 1 24 Apr 14:12:06 14:16:29 82° 286° (WNW) 14:20:50 434.975-435.025
ESTCUBE 1 24 Apr 14:23:10 14:24:44 12° 305° (NW) 14:26:19 437.505/2401.250
BEESAT 2 24 Apr 14:25:10 14:26:18 11° 109° (ESE) 14:27:25 435.950
Oscar 19 24 Apr 14:29:18 14:33:36 26° 267° (W) 14:37:57 437.125/150
BEESAT 3 24 Apr 14:30:15 14:33:43 30° 118° (ESE) 14:37:14 437.485
AO-7 24 Apr 14:32:02 14:40:02 56° 61° (ENE) 14:48:04 .
SPROUT 24 Apr 14:36:25 14:39:38 21° 297° (WNW) 14:42:50 437.525
50 SAT 24 Apr 14:46:21 14:48:46 18° 296° (WNW) 14:51:10 437.505
VELOX 1 24 Apr 14:47:54 14:50:55 18° 300° (WNW) 14:53:55 145.980
RS-15 24 Apr 14:50:56 15:02:49 48° 29° (NNE) 15:14:17 29.354- 29.394
SO-50 24 Apr 14:57:23 15:01:39 40° 42° (NE) 15:05:54 436.795
YUBILEINY 24 Apr 15:01:02 15:09:15 42° 68° (ENE) 15:17:26 435.215
BEESAT 24 Apr 15:07:13 15:11:12 26° 94° (E) 15:15:09 436.000
ISS 24 Apr 15:10:32 15:13:47 72° 206° (SSW) 15:17:02 437.550
Tancredo 1 24 Apr 15:10:43 15:13:47 58° 208° (SSW) 15:16:50 437.200
UKube-1 24 Apr 15:21:45 15:25:19 25° 296° (WNW) 15:28:50 .
MOZHAYETS 4 24 Apr 15:26:31 15:29:58 20° 91° (E) 15:33:23
AO-85 24 Apr 15:31:30 15:34:47 22° 323° (NW) 15:37:59 145.980
ITUPSAT 1 24 Apr 15:45:25 15:50:08 56° 101° (ESE) 15:54:49 437.325
ITAMSAT 1 24 Apr 15:47:47 15:52:47 48° 261° (W) 15:57:49 435.822/435.867
DX 1 24 Apr 15:50:26 15:51:56 12° 305° (NW) 15:53:27 434.975-435.025
BEESAT 2 24 Apr 15:59:23 16:03:23 90° 73° (ENE) 16:07:26 435.950
BEESAT 3 24 Apr 16:07:32 16:11:14 36° 317° (NW) 16:14:59 437.485
CUBESAT XI-V 24 Apr 16:11:22 16:12:48 11° 86° (E) 16:14:16 437.345
AO-7 24 Apr 16:25:24 16:33:04 41° 262° (W) 16:40:47 .
CUTE-I 24 Apr 16:37:06 16:40:26 17° 55° (NE) 16:43:47 437.470
SO-50 24 Apr 16:38:00 16:42:04 33° 242° (WSW) 16:46:06 436.795
DOVE 4 24 Apr 16:40:58 16:45:14 25° 63° (ENE) 16:49:26 437.250
BEESAT 24 Apr 16:44:38 16:49:08 43° 292° (WNW) 16:53:37 436.000
HO-68 24 Apr 16:46:57 16:49:36 12° 40° (NE) 16:52:16 435.675
ISS 24 Apr 16:47:59 16:49:47 14° 224° (SW) 16:51:36 437.550
Tancredo 1 24 Apr 16:48:31 16:49:09 10° 226° (SW) 16:49:47 437.200
XW-2F 24 Apr 16:51:28 16:53:15 13° 61° (ENE) 16:55:04 145.980 - 146.000
YUBILEINY 24 Apr 16:57:55 17:06:17 53° 271° (W) 17:14:41 435.215
MOZHAYETS 4 24 Apr 17:02:57 17:07:24 51° 290° (WNW) 17:11:52
RS-15 24 Apr 17:04:13 17:16:32 80° 237° (WSW) 17:28:17 29.354- 29.394
NUDT-PHONESAT 24 Apr 17:10:49 17:13:15 17° 64° (ENE) 17:15:40 437.300
ITUPSAT 1 24 Apr 17:24:00 17:27:35 22° 299° (WNW) 17:31:11 437.325
KKS-1 24 Apr 17:35:22 17:39:50 70° 103° (ESE) 17:44:14 437.445
XW-2D 24 Apr 17:37:12 17:40:42 40° 71° (ENE) 17:44:15 145.860 - 145.880
BEESAT 2 24 Apr 17:38:54 17:41:43 18° 328° (NNW) 17:44:33 435.950
XW-2B 24 Apr 17:43:57 17:47:33 46° 72° (ENE) 17:51:10 145.730 - 145.750
CUBESAT XI-V 24 Apr 17:46:08 17:50:54 86° 104° (ESE) 17:55:37 437.345
BEESAT 3 24 Apr 17:48:51 17:49:57 11° 339° (NNW) 17:51:03 437.485
LilacSat-2 24 Apr 17:51:33 17:55:15 61° 74° (ENE) 17:58:59 437.200
XW-2C 24 Apr 17:55:36 17:59:19 65° 73° (ENE) 18:03:03 145.795 - 145.815
KAITUO 1B 24 Apr 18:00:10 18:03:48 58° 73° (ENE) 18:07:27 145.475/437.950
XW-2A 24 Apr 18:05:34 18:06:37 11° 61° (ENE) 18:07:38 145.665 - 145.685
SEEDS 24 Apr 18:06:01 18:06:27 10° 56° (NE) 18:06:53 437.485
CUTE-I 24 Apr 18:14:25 18:19:47 88° 254° (WSW) 18:25:10 437.470
STARS 24 Apr 18:14:58 18:19:22 80° 103° (ESE) 18:23:44 437.465
DOVE 4 24 Apr 18:17:21 18:22:34 56° 260° (W) 18:27:44 437.250
CUBEBUG 2 24 Apr 18:17:33 18:17:59 10° 57° (ENE) 18:18:25 437.445
XW-2F 24 Apr 18:23:16 18:26:56 62° 258° (WSW) 18:30:40 145.980 - 146.000
HO-68 24 Apr 18:28:54 18:35:37 46° 62° (ENE) 18:42:23 435.675
NUDT-PHONESAT 24 Apr 18:43:22 18:46:52 42° 261° (W) 18:50:24 437.300
STRAND 1 24 Apr 18:54:29 18:56:23 12° 86° (E) 18:58:16 437.568
YUBILEINY 24 Apr 18:59:36 19:00:52 10° 293° (WNW) 19:02:07 435.215
ZACube-1 24 Apr 19:10:22 19:12:09 13° 59° (ENE) 19:13:56 437.345
CUTE 1.7 + AOD 2 24 Apr 19:12:01 19:16:11 63° 73° (ENE) 19:20:23 437.475
XW-2D 24 Apr 19:12:33 19:15:06 17° 268° (W) 19:17:39 145.860 - 145.880
KKS-1 24 Apr 19:13:09 19:15:52 16° 301° (WNW) 19:18:35 437.445
RS-15 24 Apr 19:18:16 19:27:00 24° 261° (W) 19:35:30 29.354- 29.394
AO-73 24 Apr 19:18:32 19:20:37 14° 59° (ENE) 19:22:42 145.935
AAUSAT CUBESAT 2 24 Apr 19:18:39 19:22:05 26° 66° (ENE) 19:25:33 437.432
XW-2B 24 Apr 19:19:46 19:22:01 15° 269° (W) 19:24:16 145.730 - 145.750
CUBESAT XI-V 24 Apr 19:25:03 19:27:37 15° 303° (WNW) 19:30:11 437.345
LilacSat-2 24 Apr 19:28:27 19:29:57 12° 271° (W) 19:31:27 437.200
XW-2C 24 Apr 19:32:47 19:33:57 11° 272° (W) 19:35:06 145.795 - 145.815
O/OREOS (USA 219) 24 Apr 19:33:46 19:37:40 26° 51° (NE) 19:41:32 437.305
XW-2A 24 Apr 19:35:35 19:38:54 60° 258° (WSW) 19:42:15 145.665 - 145.685
Oscar 11 24 Apr 19:36:28 19:39:23 18° 61° (ENE) 19:42:19 .
KAITUO 1B 24 Apr 19:36:41 19:38:12 12° 271° (W) 19:39:42 145.475/437.950
SEEDS 24 Apr 19:37:12 19:41:22 77° 75° (ENE) 19:45:36 437.485
UWE-3 24 Apr 19:42:25 19:46:24 40° 70° (ENE) 19:50:20 435.000/436.395/437.385
CUBEBUG 2 24 Apr 19:49:31 19:53:53 75° 75° (ENE) 19:58:10 437.445
STARS 24 Apr 19:52:50 19:55:07 14° 303° (WNW) 19:57:24 437.465
CUTE-I 24 Apr 19:57:56 20:00:36 14° 273° (W) 20:03:17 437.470
M-CUBED/EXP-1 PRIME 24 Apr 20:13:17 20:17:26 43° 103° (ESE) 20:21:16 437.505
HO-68 24 Apr 20:16:42 20:23:25 43° 262° (W) 20:30:11 435.675
DELFI C3 24 Apr 20:27:30 20:30:09 17° 62° (ENE) 20:32:48 145.870
STRAND 1 24 Apr 20:31:13 20:36:22 83° 106° (ESE) 20:41:28 437.568
AO-85 24 Apr 20:37:40 20:40:55 24° 38° (NE) 20:44:12 145.980
ZACube-1 24 Apr 20:43:38 20:47:52 82° 259° (W) 20:52:03 437.345
CUTE 1.7 + AOD 2 24 Apr 20:50:08 20:52:27 14° 271° (W) 20:54:47 437.475
AO-73 24 Apr 20:52:09 20:56:20 74° 258° (WSW) 21:00:29 145.935
AAUSAT CUBESAT 2 24 Apr 20:53:39 20:57:25 34° 264° (W) 21:01:15 437.432
NO-84 24 Apr 20:54:58 20:58:18 38° 140° (SE) 21:01:21 435.350 FM
BEESAT 3 24 Apr 21:06:36 21:08:50 14° 27° (NNE) 21:11:05 437.485
Oscar 11 24 Apr 21:10:54 21:15:08 56° 260° (W) 21:19:23 .
O/OREOS (USA 219) 24 Apr 21:12:54 21:17:17 45° 251° (WSW) 21:21:38 437.305
SEEDS 24 Apr 21:16:06 21:17:36 12° 273° (W) 21:19:08 437.485
UWE-3 24 Apr 21:19:39 21:23:01 22° 267° (W) 21:26:20 435.000/436.395/437.385
CUBEBUG 2 24 Apr 21:29:09 21:31:00 12° 272° (W) 21:32:51 437.445
OBJECT BX 24 Apr 21:45:48 21:49:26 86° 75° (ENE) 21:53:06 145.990 - 145.960
M-CUBED/EXP-1 PRIME 24 Apr 21:48:06 21:51:37 24° 303° (WNW) 21:54:57 437.505
DELFI C3 24 Apr 22:00:41 22:04:34 51° 260° (W) 22:08:30 145.870
TIGRISAT 24 Apr 22:10:18 22:13:32 21° 92° (E) 22:16:46 435.000
ESTCUBE 1 24 Apr 22:11:41 22:14:56 20° 61° (ENE) 22:18:11 437.505/2401.250
STRAND 1 24 Apr 22:11:42 22:14:54 17° 304° (WNW) 22:18:06 437.568
AO-85 24 Apr 22:17:41 22:21:32 52° 237° (WSW) 22:25:31 145.980
UNISAT 6 24 Apr 22:30:16 22:34:12 34° 97° (E) 22:38:08 437.425
NO-84 24 Apr 22:32:37 22:35:50 40° 337° (NNW) 22:38:48 435.350 FM
BEESAT 2 24 Apr 22:36:27 22:39:59 27° 39° (NE) 22:43:29 435.950
VELOX 1 24 Apr 22:37:47 22:39:29 12° 56° (NE) 22:41:12 145.980
BEESAT 3 24 Apr 22:43:15 22:47:15 60° 49° (NE) 22:51:12 437.485
PRISM 24 Apr 22:44:07 22:48:19 75° 104° (ESE) 22:52:26 437.425
FO-29 24 Apr 22:57:29 23:02:30 46° 99° (E) 23:07:39 435.910
LO-87 24 Apr 22:58:02 23:01:40 86° 76° (ENE) 23:05:20 145.935 - 145.965
AIST 2D 24 Apr 23:17:07 23:19:04 14° 91° (E) 23:21:01 435.315
QB50P2 24 Apr 23:21:36 23:22:35 11° 87° (E) 23:23:33 145.880/145.840
DX 1 24 Apr 23:36:21 23:39:19 18° 60° (ENE) 23:42:16 434.975-435.025
NANOSAT C BR1 24 Apr 23:44:41 23:47:18 16° 90° (E) 23:49:55 145.865
TIGRISAT 24 Apr 23:46:23 23:50:26 43° 290° (WNW) 23:54:30 435.000
ESTCUBE 1 24 Apr 23:46:56 23:51:21 56° 260° (W) 23:55:49 437.505/2401.250
50 SAT 24 Apr 23:49:06 23:52:01 25° 67° (ENE) 23:54:57 437.505
SPROUT 24 Apr 23:56:17 00:00:27 53° 71° (ENE) 00:04:38 437.525
UNISAT 6 25 Apr 00:07:14 00:10:49 27° 294° (WNW) 00:14:25 437.425
EO-79 25 Apr 00:10:02 00:13:47 31° 96° (E) 00:17:32 145.935-145.965
VELOX 1 25 Apr 00:10:44 00:15:12 82° 74° (ENE) 00:19:42 145.980
NO-84 25 Apr 00:11:21 00:13:54 22° 358° (N) 00:16:19 435.350 FM
BEESAT 2 25 Apr 00:14:01 00:17:56 46° 239° (WSW) 00:21:48 435.950
DUCHIFAT 1 25 Apr 00:15:05 00:18:45 29° 95° (E) 00:22:23 145.980
PRISM 25 Apr 00:20:54 00:23:02 14° 302° (WNW) 00:25:09 437.425
BEESAT 3 25 Apr 00:21:44 00:24:26 17° 247° (WSW) 00:27:07 437.485
UKube-1 25 Apr 00:42:52 00:47:05 52° 70° (ENE) 00:51:19 .
FO-29 25 Apr 00:43:09 00:47:27 27° 298° (WNW) 00:51:49 435.910
POLYITAN 1 25 Apr 00:48:16 00:52:28 78° 103° (ESE) 00:56:40 437.675
AIST 2D 25 Apr 00:49:09 00:52:32 44° 288° (WNW) 00:55:53 435.315
QB50P2 25 Apr 00:54:44 00:58:58 84° 287° (WNW) 01:03:10 145.880/145.840
Oscar 19 25 Apr 00:58:51 01:00:59 12° 86° (E) 01:03:07 437.125/150
DX 1 25 Apr 01:10:44 01:15:04 60° 258° (WSW) 01:19:26 434.975-435.025
NANOSAT C BR1 25 Apr 01:19:15 01:23:22 55° 288° (WNW) 01:27:27 145.865
ITUPSAT 1 25 Apr 01:20:21 01:23:03 15° 56° (ENE) 01:25:46 437.325
50 SAT 25 Apr 01:22:02 01:24:55 24° 265° (W) 01:27:50 437.505
BUGSAT 1 25 Apr 01:26:36 01:30:34 54° 101° (E) 01:34:29 437.445
SPROUT 25 Apr 01:33:51 01:36:41 17° 269° (W) 01:39:33 437.525
EO-79 25 Apr 01:45:53 01:49:30 28° 294° (WNW) 01:53:05 145.935-145.965
NO-84 25 Apr 01:49:14 01:52:01 34° 20° (NNE) 01:54:42 435.350 FM
VELOX 1 25 Apr 01:50:28 01:52:15 12° 272° (W) 01:54:02 145.980
DUCHIFAT 1 25 Apr 01:50:45 01:54:23 30° 294° (WNW) 01:58:01 145.980
BEESAT 25 Apr 02:16:45 02:21:15 44° 68° (ENE) 02:25:47 436.000
Gurwin Techsat 1B 25 Apr 02:18:38 02:23:34 37° 97° (E) 02:28:28 435.225
UKube-1 25 Apr 02:20:24 02:23:24 18° 268° (W) 02:26:26 .
POLYITAN 1 25 Apr 02:25:39 02:27:41 13° 302° (WNW) 02:29:43 437.675
MOZHAYETS 4 25 Apr 02:31:36 02:35:32 29° 65° (ENE) 02:39:30
AO-7 25 Apr 02:32:51 02:35:17 11° 82° (E) 02:37:43 .
QB50P2 25 Apr 02:32:53 02:34:03 11° 303° (WNW) 02:35:14 145.880/145.840
Oscar 19 25 Apr 02:35:52 02:41:07 84° 104° (ESE) 02:46:19 437.125/150
ITUPSAT 1 25 Apr 02:55:29 03:00:14 85° 256° (WSW) 03:05:02 437.325
KKS-1 25 Apr 03:02:40 03:05:02 14° 57° (ENE) 03:07:25 437.445
BUGSAT 1 25 Apr 03:02:58 03:05:32 17° 299° (WNW) 03:08:06 437.445
PCSat 25 Apr 03:06:04 03:11:20 54° 117° (ESE) 03:16:37 145.827
CUBESAT XI-V 25 Apr 03:17:18 03:20:25 18° 60° (ENE) 03:23:33 437.345
NO-84 25 Apr 03:26:49 03:29:32 37° 220° (SW) 03:32:12 435.350 FM
STARS 25 Apr 03:40:42 03:43:15 15° 58° (ENE) 03:45:48 437.465
BEESAT 25 Apr 03:55:20 03:59:13 25° 266° (W) 04:03:07 436.000
ITAMSAT 1 25 Apr 03:56:40 04:01:39 45° 99° (E) 04:06:35 435.822/435.867
Gurwin Techsat 1B 25 Apr 03:58:41 04:03:30 36° 295° (WNW) 04:08:17 435.225
YUBILEINY 25 Apr 04:06:56 04:14:49 41° 85° (E) 04:22:43 435.215
MOZHAYETS 4 25 Apr 04:08:28 04:12:37 35° 264° (W) 04:16:49
Oscar 19 25 Apr 04:16:26 04:19:47 17° 304° (WNW) 04:23:07 437.125/150
AO-7 25 Apr 04:21:45 04:29:57 57° 103° (ESE) 04:38:06 .
KKS-1 25 Apr 04:36:30 04:40:59 83° 256° (WSW) 04:45:30 437.445
ITUPSAT 1 25 Apr 04:37:28 04:38:49 11° 274° (W) 04:40:10 437.325
